FW3025 Weather Reports


Display with metric or nautical units.
time (UTC)temp
F
wind
direction
speed
MPH
gust
MPH
rain 1hr
in
rain 24hr
in
rain mn
in
humidity
%
barometer
mb
20260505003101 64 185 1.0 5.0 0.00 0.00 0.00 47 954.9
20260505000014 65 155 1.0 6.0 0.00 0.00 0.00 45 954.6
20260504234506 66 181 2.0 12.0 0.00 0.00 0.00 44 954.6
20260504233005 67 163 2.0 8.0 0.00 0.00 0.00 43 954.6
20260504230014 69 202 1.0 6.0 0.00 0.00 0.00 40 954.3
20260504224511 70 161 1.0 8.0 0.00 0.00 0.00 39 954.4
20260504223010 72 180 2.0 6.0 0.00 0.00 0.00 37 954.5
20260504220059 74 204 0.0 8.0 0.00 0.00 0.00 36 954.3
20260504214557 74 257 1.0 6.0 0.00 0.00 0.00 34 954.4
20260504213102 74 202 2.0 8.0 0.00 0.00 0.00 32 954.4
20260504210050 74 181 2.0 7.0 0.00 0.00 0.00 35 954.6
20260504204543 73 267 1.0 8.0 0.00 0.00 0.00 37 954.7
20260504203040 72 198 3.0 12.0 0.00 0.00 0.00 36 954.9
20260504200039 71 215 3.0 9.0 0.00 0.00 0.00 38 955.3
20260504194539 71 240 4.0 17.0 0.00 0.00 0.00 37 955.5
20260504193045 71 117 0.0 5.0 0.00 0.00 0.00 38 955.7
20260504190058 71 240 7.0 16.0 0.00 0.00 0.00 37 955.8
20260504184602 71 217 6.0 14.0 0.00 0.00 0.00 37 955.8
20260504183053 70 248 3.0 14.0 0.00 0.00 0.00 38 955.9
20260504180015 70 198 4.0 14.0 0.00 0.00 0.00 42 956.2
20260504174512 69 221 3.0 9.0 0.00 0.00 0.00 41 956.3
20260504173015 69 252 2.0 11.0 0.00 0.00 0.00 41 956.4
20260504044533 47 22 0.0 1.0 0.00 0.00 0.00 57 959.1
20260504043026 47 22 0.0 0.0 0.00 0.00 0.00 57 959.0
20260504040021 48 15 0.0 0.0 0.00 0.00 0.00 54 959.0
20260504034520 49 15 0.0 0.0 0.00 0.00 0.00 54 959.0
20260504033022 49 15 0.0 0.0 0.00 0.00 0.00 54 959.0
20260504030010 49 9 0.0 0.0 0.00 0.00 0.00 54 959.2
20260504024511 49 9 0.0 0.0 0.00 0.00 0.00 53 959.2
20260504023009 49 9 0.0 1.0 0.00 0.00 0.00 53 959.5
20260504020019 50 9 0.0 0.0 0.00 0.00 0.00 53 959.4
20260504014517 50 9 0.0 2.0 0.00 0.00 0.00 51 959.2
20260504013030 50 9 0.0 2.0 0.00 0.00 0.00 51 959.2
20260504010044 51 250 0.0 1.0 0.00 0.00 0.00 49 959.0
20260504004544 51 250 0.0 3.0 0.00 0.00 0.00 49 959.0